GW6017 Weather Reports


Display with metric or nautical units.
time (UTC)temp
F
wind
direction
speed
MPH
gust
MPH
rain 1hr
in
rain 24hr
in
rain mn
in
humidity
%
barometer
mb
20260504234019 52 135 3.0 4.0 0.00 0.00 0.00 71 1020.3
20260504233519 53 158 3.0 4.0 0.00 0.00 0.00 69 1020.4
20260504233008 54 158 3.0 5.0 0.00 0.00 0.00 68 1020.3
20260504232519 55 135 3.0 9.0 0.00 0.00 0.00 65 1020.3
20260504232019 56 90 8.0 12.0 0.00 0.00 0.00 65 1020.2
20260504231518 55 90 8.0 11.0 0.00 0.00 0.00 66 1020.1
20260504231019 54 90 6.0 10.0 0.00 0.00 0.00 68 1020.1
20260504230542 54 90 6.0 8.0 0.00 0.00 0.00 68 1020.0
20260504230006 54 90 6.0 9.0 0.00 0.00 0.00 68 1019.9
20260504225519 53 90 6.0 8.0 0.00 0.00 0.00 68 1019.9
20260504225019 54 90 5.0 7.0 0.00 0.00 0.00 68 1019.9
20260504224539 54 90 4.0 7.0 0.00 0.00 0.00 67 1019.9
20260504224019 54 113 6.0 10.0 0.00 0.00 0.00 67 1019.8
20260504223518 54 113 6.0 9.0 0.00 0.00 0.00 68 1019.9
20260504223007 53 113 5.0 8.0 0.00 0.00 0.00 68 1019.7
20260504222519 53 90 5.0 8.0 0.00 0.00 0.00 68 1019.7
20260504222019 54 90 4.0 8.0 0.00 0.00 0.00 67 1019.7
20260504221539 54 90 6.0 8.0 0.00 0.00 0.00 67 1019.7
20260504221141 54 90 6.0 9.0 0.00 0.00 0.00 66 1019.7
20260504220539 54 113 7.0 10.0 0.00 0.00 0.00 66 1019.6
20260504220012 54 113 6.0 9.0 0.00 0.00 0.00 67 1019.7
20260504215518 54 113 5.0 10.0 0.00 0.00 0.00 67 1019.7
20260504215019 54 90 5.0 9.0 0.00 0.00 0.00 67 1019.7
20260504214539 54 90 5.0 8.0 0.00 0.00 0.00 67 1019.6
20260504214019 54 90 4.0 7.0 0.00 0.00 0.00 67 1019.7
20260504213519 54 90 5.0 8.0 0.00 0.00 0.00 67 1019.6
20260504213007 54 90 6.0 10.0 0.00 0.00 0.00 67 1019.5
20260504212519 54 90 7.0 10.0 0.00 0.00 0.00 67 1019.4
20260504212018 54 90 6.0 9.0 0.00 0.00 0.00 68 1019.6
20260504211539 53 113 5.0 8.0 0.00 0.00 0.00 69 1019.5
20260504211019 52 90 2.0 6.0 0.00 0.00 0.00 72 1019.5
20260504210518 52 90 1.0 2.0 0.00 0.00 0.00 71 1019.6
20260504210006 52 90 1.0 3.0 0.00 0.00 0.00 71 1019.5
20260504205518 52 113 1.0 4.0 0.00 0.00 0.00 70 1019.4
20260504205019 52 0.0 2.0 0.00 0.00 0.00 70 1019.4
20260504204518 53 113 1.0 4.0 0.00 0.00 0.00 69 1019.3
20260504204019 53 113 1.0 2.0 0.00 0.00 0.00 69 1019.3
20260504203519 54 113 1.0 3.0 0.00 0.00 0.00 68 1019.3
20260504203006 54 113 2.0 5.0 0.00 0.00 0.00 67 1019.2
20260504202019 54 113 3.0 7.0 0.00 0.00 0.00 67 1019.3
20260504201518 54 113 4.0 7.0 0.00 0.00 0.00 67 1019.2
20260504201039 54 113 5.0 7.0 0.00 0.00 0.00 67 1019.1
20260504200518 54 90 5.0 8.0 0.00 0.00 0.00 67 1019.1
20260504200006 54 90 5.0 8.0 0.00 0.00 0.00 67 1019.1
20260504195539 54 90 5.0 8.0 0.00 0.00 0.00 67 1019.0
20260504195019 54 90 5.0 8.0 0.00 0.00 0.00 67 1018.9
20260504194519 54 90 5.0 8.0 0.00 0.00 0.00 67 1019.0
20260504194019 54 90 5.0 7.0 0.00 0.00 0.00 67 1019.1
20260504193518 54 113 4.0 9.0 0.00 0.00 0.00 67 1018.9
20260504193007 54 113 3.0 6.0 0.00 0.00 0.00 67 1018.9
20260504192518 54 90 3.0 6.0 0.00 0.00 0.00 67 1018.9
20260504192018 54 113 4.0 7.0 0.00 0.00 0.00 67 1018.9
20260504191539 54 90 5.0 8.0 0.00 0.00 0.00 67 1018.9
20260504191018 54 90 6.0 9.0 0.00 0.00 0.00 67 1018.8
20260504190518 54 90 6.0 8.0 0.00 0.00 0.00 67 1018.9
20260504190008 55 113 6.0 9.0 0.00 0.00 0.00 67 1018.9
20260504185518 55 90 6.0 9.0 0.00 0.00 0.00 67 1018.9
20260504185018 55 90 5.0 8.0 0.00 0.00 0.00 67 1019.0
20260504184519 54 113 5.0 8.0 0.00 0.00 0.00 67 1019.1
20260504184018 54 113 4.0 7.0 0.00 0.00 0.00 67 1019.2
20260504183539 54 113 5.0 9.0 0.00 0.00 0.00 68 1019.1
20260504183029 54 113 4.0 7.0 0.00 0.00 0.00 68 1019.2
20260504182518 54 113 4.0 7.0 0.00 0.00 0.00 68 1019.2
20260504182018 54 90 3.0 7.0 0.00 0.00 0.00 68 1019.2
20260504181519 54 90 1.0 3.0 0.00 0.00 0.00 68 1019.3
20260504181019 55 0.0 2.0 0.00 0.00 0.00 67 1019.3
20260504180518 55 90 1.0 2.0 0.00 0.00 0.00 67 1019.3
20260504180008 55 90 2.0 4.0 0.00 0.00 0.00 66 1019.3
20260504175519 55 90 5.0 10.0 0.00 0.00 0.00 66 1019.2
20260504175018 55 90 5.0 8.0 0.00 0.00 0.00 67 1019.1
20260504174518 55 90 2.0 4.0 0.00 0.00 0.00 65 1019.0
20260504174018 56 90 5.0 8.0 0.00 0.00 0.00 64 1019.1
20260504173518 56 90 7.0 10.0 0.00 0.00 0.00 64 1019.1
20260504173008 56 90 6.0 10.0 0.00 0.00 0.00 64 1019.2
20260504172518 56 90 6.0 9.0 0.00 0.00 0.00 64 1019.2
20260504172018 56 90 4.0 8.0 0.00 0.00 0.00 63 1019.2
20260504171518 57 113 4.0 9.0 0.00 0.00 0.00 63 1019.1
20260504171020 57 113 6.0 9.0 0.00 0.00 0.00 62 1018.9
20260504170518 57 113 6.0 13.0 0.00 0.00 0.00 61 1018.8
20260504151020 60 90 9.0 14.0 0.00 0.00 0.00 54 1019.3
20260504150519 60 90 9.0 14.0 0.00 0.00 0.00 53 1019.3
20260504141019 62 90 8.0 11.0 0.00 0.00 0.00 50 1019.6
20260504140519 62 113 8.0 13.0 0.00 0.00 0.00 50 1019.7
20260504130519 63 90 7.0 11.0 0.00 0.00 0.00 48 1019.6
20260504110518 67 180 3.0 7.0 0.00 0.00 0.00 42 1018.8
20260504100519 69 113 6.0 11.0 0.00 0.00 0.00 40 1018.3
20260504081518 73 113 8.0 12.0 0.00 0.00 0.00 34 1018.5
20260504081039 74 113 9.0 13.0 0.00 0.00 0.00 34 1018.6
20260504080518 74 113 9.0 13.0 0.00 0.00 0.00 35 1018.5
20260504050518 72 113 9.0 14.0 0.00 0.00 0.00 38 1018.9
20260504045518 72 68 14.0 20.0 0.00 0.00 0.00 39 1019.1
20260504045038 71 90 12.0 19.0 0.00 0.00 0.00 38 1019.2
20260504044538 71 90 12.0 16.0 0.00 0.00 0.00 39 1019.3
20260504044018 71 90 12.0 17.0 0.00 0.00 0.00 39 1019.3
20260504043517 71 90 9.0 15.0 0.00 0.00 0.00 40 1019.3
20260504043006 71 90 13.0 18.0 0.00 0.00 0.00 39 1019.4
20260504042517 71 90 13.0 22.0 0.00 0.00 0.00 39 1019.4
20260504042059 71 90 13.0 20.0 0.00 0.00 0.00 39 1019.6
20260504041519 71 90 11.0 17.0 0.00 0.00 0.00 39 1019.8
20260504041017 71 68 13.0 22.0 0.00 0.00 0.00 39 1019.9
20260504040539 71 90 11.0 20.0 0.00 0.00 0.00 39 1020.0
20260504040049 71 90 14.0 19.0 0.00 0.00 0.00 40 1020.0
20260504035559 70 68 15.0 27.0 0.00 0.00 0.00 41 1020.1
20260504035017 70 90 13.0 21.0 0.00 0.00 0.00 41 1020.3
20260504034517 70 68 13.0 19.0 0.00 0.00 0.00 42 1020.4
20260504034017 69 68 17.0 24.0 0.00 0.00 0.00 42 1020.3
20260504033517 69 68 17.0 24.0 0.00 0.00 0.00 43 1020.5
20260504033008 69 68 14.0 21.0 0.00 0.00 0.00 43 1020.6
20260504032518 69 68 16.0 23.0 0.00 0.00 0.00 43 1020.7
20260504032018 69 90 13.0 19.0 0.00 0.00 0.00 43 1020.8
20260504031538 69 68 17.0 26.0 0.00 0.00 0.00 43 1020.9
20260504031017 68 90 15.0 23.0 0.00 0.00 0.00 43 1020.9
20260504030517 69 68 16.0 25.0 0.00 0.00 0.00 43 1020.9
20260504030008 68 68 16.0 23.0 0.00 0.00 0.00 44 1020.8
20260504025518 68 68 18.0 27.0 0.00 0.00 0.00 44 1020.9
20260504025017 68 68 19.0 24.0 0.00 0.00 0.00 44 1021.1
20260504024517 69 68 16.0 23.0 0.00 0.00 0.00 44 1021.2
20260504024017 68 68 18.0 27.0 0.00 0.00 0.00 45 1021.2
20260504023518 68 68 16.0 24.0 0.00 0.00 0.00 45 1021.3
20260504023007 68 68 17.0 23.0 0.00 0.00 0.00 45 1021.4
20260504022517 67 68 18.0 26.0 0.00 0.00 0.00 47 1021.4
20260504022018 67 68 19.0 26.0 0.00 0.00 0.00 47 1021.5
20260504021517 66 68 20.0 27.0 0.00 0.00 0.00 47 1021.4
20260504021018 67 68 16.0 25.0 0.00 0.00 0.00 48 1021.6
20260504020518 66 68 16.0 24.0 0.00 0.00 0.00 48 1021.7
20260504020007 66 68 17.0 25.0 0.00 0.00 0.00 49 1021.7
20260504015517 66 68 16.0 23.0 0.00 0.00 0.00 49 1021.8
20260504015018 66 68 16.0 24.0 0.00 0.00 0.00 50 1022.0
20260504014517 65 68 17.0 25.0 0.00 0.00 0.00 50 1022.0
20260504014038 65 68 17.0 25.0 0.00 0.00 0.00 51 1021.9
20260504013518 65 68 16.0 25.0 0.00 0.00 0.00 51 1022.0
20260504013028 64 68 13.0 21.0 0.00 0.00 0.00 53 1022.1
20260504012517 63 90 14.0 21.0 0.00 0.00 0.00 55 1022.1
20260504012017 63 68 14.0 21.0 0.00 0.00 0.00 55 1022.2
20260504011517 62 68 14.0 20.0 0.00 0.00 0.00 56 1022.1
20260504011019 62 68 15.0 24.0 0.00 0.00 0.00 57 1022.1
20260504010519 61 68 16.0 22.0 0.00 0.00 0.00 58 1022.1
20260504010031 61 90 15.0 24.0 0.00 0.00 0.00 58 1022.4
20260504005519 61 68 16.0 22.0 0.00 0.00 0.00 60 1022.3
20260504005019 61 68 15.0 20.0 0.00 0.00 0.00 60 1022.2
20260504004519 60 68 13.0 19.0 0.00 0.00 0.00 62 1022.2
20260504004019 59 68 12.0 19.0 0.00 0.00 0.00 63 1022.0
20260504003519 59 90 11.0 18.0 0.00 0.00 0.00 65 1022.1
20260504003008 58 90 10.0 14.0 0.00 0.00 0.00 66 1022.2
20260504002600 57 90 9.0 13.0 0.00 0.00 0.00 67 1022.1
20260504002039 56 90 9.0 13.0 0.00 0.00 0.00 68 1022.0
20260504001519 56 90 8.0 14.0 0.00 0.00 0.00 69 1022.1
20260504001019 56 90 9.0 13.0 0.00 0.00 0.00 70 1022.2
20260504000519 55 90 6.0 10.0 0.00 0.00 0.00 72 1022.1
20260504000033 55 90 6.0 11.0 0.00 0.00 0.00 72 1022.0
20260503235519 54 90 5.0 10.0 0.00 0.00 0.00 73 1021.9
20260503235039 54 90 4.0 8.0 0.00 0.00 0.00 74 1021.9
20260503234519 53 90 4.0 7.0 0.00 0.00 0.00 75 1021.9